This demonstration page uses our WeatherBlox Daily Observations layout. Learn more.

Left ArrowRight Arrow

41.55636, -103.73856

Hourly Observations for February 11, 2015

Temp ( °F °C ) Dew Point ( °F °C ) Humidity (%) Winds ( mph kmh ) Pressure ( in mb ) Visibility ( mi km ) Precip ( " mm )
12:49 am 00:49 Mostly Cloudy 32 0 27 -3 80 80 NW 14 22 30.42 1030 10 16.0934 0 0
12:53 am 00:53 Mostly Cloudy 31 -0.6 26 -3.3 82 82 NW 13 20 30.3 1026 10 16.0934 0 0
1:46 am 01:46 Partly Cloudy 30 -1.1 25 -3.9 82 82 NNW 15 24 30.48 1032 10 16.0934 0 0
1:53 am 01:53 Mostly Clear 30 -1.1 25 -3.9 82 82 NW 12 19 30.33 1027 10 16.0934 0 0
2:38 am 02:38 Mostly Cloudy 30 -1 27 -3 86 86 Calm 30.5 1033 10 16.0934 0 0
2:53 am 02:53 Cloudy 31 -0.6 26 -3.3 82 82 Calm 30.37 1029 10 16.0934 0 0
3:53 am 03:53 Cloudy 30 -1.1 26 -3.3 85 85 NNW 3 6 30.4 1030 10 16.0934 0 0
4:53 am 04:53 Cloudy 30 -1.1 25 -3.9 82 82 NNW 7 11 30.43 1030 10 16.0934 0 0
5:53 am 05:53 Cloudy 28 -2.2 24 -4.4 85 85 Calm 30.45 1031 10 16.0934 0 0
6:19 am 06:19 Partly Cloudy 28 -2.2 24 -4.4 85 85 Calm 30.5 1033 10 16.0934 0 0
6:53 am 06:53 Clear 27 -2.8 24 -4.4 89 89 WNW 3 6 30.46 1031 10 16.0934 0 0
7:53 am 07:53 Cloudy 29 -1.7 26 -3.3 89 89 WNW 3 6 30.46 1032 10 16.0934 0 0
8:53 am 08:53 Cloudy 32 0 27 -2.8 82 82 NW 6 9 30.47 1032 10 16.0934 0 0
9:53 am 09:53 Cloudy 35 1.7 28 -2.2 76 76 NW 6 9 30.46 1032 10 16.0934 0 0
10:53 am 10:53 Cloudy 41 5 28 -2.2 60 60 W 5 7 30.45 1031 10 16.0934 0 0
11:53 am 11:53 Cloudy 45 7.2 24 -4.4 44 44 VRB 3 6 30.42 1030 10 16.0934 0 0
12:53 pm 12:53 Cloudy 49 9.4 25 -3.9 39 39 W 8 13 30.38 1029 10 16.0934 0 0
1:53 pm 13:53 Sunny 53 11.7 25 -3.9 34 34 WNW 10 17 30.34 1027 10 16.0934 0 0
2:53 pm 14:53 Mostly Sunny 55 12.8 25 -3.9 31 31 NNW 13 20 30.33 1027 10 16.0934 0 0
3:53 pm 15:53 Cloudy 54 12.2 26 -3.3 34 34 N 8 13 30.32 1027 10 16.0934 0 0
4:53 pm 16:53 Mostly Cloudy 51 10.6 28 -2.2 41 41 N 3 6 30.32 1027 10 16.0934 0 0
5:53 pm 17:53 Clear 40 4.4 28 -2.2 63 63 NNE 10 17 30.37 1029 10 16.0934 0 0
6:53 pm 18:53 Mostly Clear 38 3.3 29 -1.7 70 70 NNE 10 17 30.39 1029 10 16.0934 0 0
7:53 pm 19:53 Clear 35 1.7 27 -2.8 72 72 ENE 3 6 30.42 1030 10 16.0934 0 0
8:53 pm 20:53 Clear 33 0.6 27 -2.8 78 78 E 10 17 30.44 1031 10 16.0934 0 0
9:53 pm 21:53 Clear 29 -1.7 25 -3.9 85 85 E 7 11 30.47 1032 10 16.0934 0 0
10:53 pm 22:53 Clear 28 -2.2 24 -4.4 85 85 E 7 11 30.45 1031 10 16.0934 0 0
11:53 pm 23:53 Clear 27 -2.8 24 -4.4 89 89 E 6 9 30.45 1031 10 16.0934 0 0

Powered by AerisWeather